Bedford, MA

2:20 AM EDT on May 27, 2017 (GMT -0400)
Hanscom

Weather History for KBED - August, 2014

Change the Weather History Date:

Wednesday, August 20, 2014

  Actual Average Record
Temperature  
Mean Temperature 63 °F -  
Max Temperature 79 °F 79 °F 94 °F (1983)
Min Temperature 48 °F 56 °F 44 °F (1981)
Degree Days  
Heating Degree Days 2    
Growing Degree Days 13 (Base 50)    
Moisture  
Dew Point 55 °F    
Average Humidity 75    
Maximum Humidity 100    
Minimum Humidity 46    
Precipitation  
Precipitation 0.00 in - - ()
Sea Level Pressure  
Sea Level Pressure 30.04 in    
Wind  
Wind Speed 2 mph (East)    
Max Wind Speed 12 mph    
Max Gust Speed 16 mph    
Visibility 10 miles    
Events      
Averages and records for this station are not official NWS values.
T = Trace of Precipitation, MM = Missing Value Source: NWS Daily Summary

Daily Weather History Graph

Daily Weather History Graph

Search for Another Location

Airport or City:

Trip Planner

Search our weather history database for the weather conditions in past years. The results will help you decide how hot, cold, wet, or windy it might be!

Date:

Astronomy

Aug. 20, 2014 Rise Set
Actual Time 5:57 AM EDT 7:38 PM EDT
Civil Twilight 5:27 AM EDT 8:08 PM EDT
Nautical Twilight 4:51 AM EDT 8:44 PM EDT
Astronomical Twilight 4:12 AM EDT 9:23 PM EDT
Moon 1:32 AM EDT (8/20) 4:23 PM EDT (8/20)
Length of Visible Light 14h 41m
Length of Day
13h 41m
Waning Crescent, 21% of the Moon is Illuminated
Aug 20
Waning Crescent
Aug 25
New
Sep 2
First Quarter
Sep 8
Full
Sep 15
Last Quarter

Hourly Weather History & Observations

Time (EDT) Temp. Dew Point Humidity Pressure Visibility Wind Dir Wind Speed Gust Speed Precip Events Conditions
12:56 AM 55.0 °F 54.0 °F 96% 30.00 in 10.0 mi Calm Calm - N/A   Clear
1:56 AM 54.0 °F 53.1 °F 97% 29.99 in 10.0 mi Calm Calm - N/A   Clear
2:56 AM 53.1 °F 52.0 °F 96% 29.99 in 10.0 mi Calm Calm - N/A   Clear
3:56 AM 51.1 °F 51.1 °F 100% 29.99 in 10.0 mi Calm Calm - N/A   Clear
4:56 AM 51.1 °F 50.0 °F 96% 30.00 in 10.0 mi Calm Calm - N/A   Clear
5:56 AM 48.9 °F 48.9 °F 100% 30.01 in 5.0 mi Calm Calm - N/A   Clear
6:56 AM 53.1 °F 52.0 °F 96% 30.04 in 10.0 mi Calm Calm - N/A   Partly Cloudy
7:56 AM 59.0 °F 55.9 °F 90% 30.04 in 10.0 mi Calm Calm - N/A   Clear
8:56 AM 64.0 °F 57.0 °F 78% 30.04 in 10.0 mi Calm Calm - N/A   Clear
9:56 AM 72.0 °F 60.1 °F 66% 30.04 in 10.0 mi West 3.5 mph - N/A   Clear
10:56 AM 75.0 °F 59.0 °F 57% 30.05 in 10.0 mi Variable 3.5 mph - N/A   Partly Cloudy
11:56 AM 75.9 °F 57.0 °F 52% 30.05 in 10.0 mi SE 5.8 mph - N/A   Partly Cloudy
12:56 PM 78.1 °F 55.9 °F 46% 30.04 in 10.0 mi Calm Calm - N/A   Clear
1:56 PM 77.0 °F 57.9 °F 52% 30.04 in 10.0 mi East 6.9 mph - N/A   Clear
2:56 PM 78.1 °F 59.0 °F 52% 30.03 in 10.0 mi East 5.8 mph 16.1 mph N/A   Clear
3:56 PM 75.9 °F 57.9 °F 54% 30.03 in 10.0 mi ESE 11.5 mph - N/A   Scattered Clouds
4:56 PM 75.0 °F 57.0 °F 53% 30.04 in 10.0 mi East 9.2 mph - N/A   Clear
5:56 PM 73.0 °F 52.0 °F 48% 30.06 in 10.0 mi East 8.1 mph - N/A   Clear
6:56 PM 70.0 °F 51.1 °F 51% 30.05 in 10.0 mi East 9.2 mph - N/A   Clear
7:56 PM 66.0 °F 53.1 °F 63% 30.06 in 10.0 mi East 4.6 mph - N/A   Scattered Clouds
8:56 PM 63.0 °F 55.0 °F 75% 30.08 in 10.0 mi ENE 4.6 mph - N/A   Clear
9:56 PM 59.0 °F 54.0 °F 83% 30.08 in 10.0 mi Calm Calm - N/A   Clear
10:56 PM 55.0 °F 54.0 °F 96% 30.09 in 10.0 mi Calm Calm - N/A   Clear
11:56 PM 54.0 °F 53.1 °F 97% 30.09 in 10.0 mi Calm Calm - N/A   Clear